FENGYUN 1C DEB, 29813

Orbit data source: Space-Track

FENGYUN 1C DEB, 29813 is space debris in SSO originally from a launch on Mon, 10 May 1999 UTC launched from the Taiyaun Space Center, China (TSC). Fengyun 1C debris stems from the Chinese weather satellite Fengyun-1C, which was intentionally destroyed by a Chinese anti-satellite missile in 2007. This event dramatically increased the amount of space debris, with thousands of trackable fragments posing hazards to satellites and human spaceflight. The Fengyun 1C debris cloud has become a focal point in discussions about space sustainability and the need for international regulations to prevent the creation of new debris.

Loading next visibility...
Identifier
29813, 1999-025DF
Orbit
SSO
Country
Flag of CNCN / PRC
Related business
Manufacturer
Unknown
Mission
Spacecraft
Bus & Motor
Unknown
Mass
Unknown
Launch date (UTC)
1999-05-10 (27 years ago)
Launch vehicle
Unknown
Launch site
Taiyaun Space Center, China (TSC)
Object type
Payload
Rocket body
Debris
Shape & HBR
Unknown shape, 0.1 m
Radar Cross Section
Small (<0.1 m²)

Expand to show TLE details & history
Last TLE update: 13 hours ago

TLE from 13 hours ago
0 FENGYUN 1C DEB
1 29813U 99025DF  26122.00982483  .00000060  00000-0  58554-4 0  9992
2 29813  98.7159 142.4890 0012443 183.2394 206.5327 14.09493345992362
Epoch: 2026-05-02T00:14Z
TLE epoch observation values (Epoch: 2026-05-02T00:14:08.865Z)
Latitude
29.38049°
Longitude
-85.90731°
Altitude
872.808 km
Speed
7.414 km/s
True Right ascension
09h 10m 15s
True Declination
29° 14' 10"
Sunlit
Object was in daylight at epoch
Visualization orbit readout
Latitude
Unknown
Longitude
Unknown
Altitude
Unknown
Speed
Unknown
Apparent Right ascension
Unknown
Apparent Declination
Unknown
Sunlit
N/A
Visualization observer readout
Local Sidereal Time
21:01:41
Azimuth
Unknown
Elevation
Unknown
Doppler factor
Unknown
Orbital elements
Apogee altitude
867.283 km
Perigee altitude
849.275 km
Semi-major axis
7,236.416 km
Eccentricity
0.00124
Inclination
98.7159°
RAAN
142.489°
Arg. of periapsis
183.2394°
True anomaly
206.46909°
Mean anomaly
206.5327°
Eccentric anomaly
206.50089°
Mean motion
3.5258 °/min
Orbital period
102.1 mins
BSTAR
0.000058554
Loading maneuver chart data...
Computing Atmospheric mass density...

Documentation

Showing up to 5 results
|